This demonstration page uses our WeatherBlox Daily Observations layout. Learn more.

Left ArrowRight Arrow

38.20091, -84.87328

Hourly Observations for May 7, 2020

Temp ( °F °C ) Dew Point ( °F °C ) Humidity (%) Winds ( mph kmh ) Pressure ( in mb ) Visibility ( mi km ) Precip ( " mm )
12:53 am 00:53 Clear 40 4.4 33 0.6 77 77 Calm 30.06 1018 10 16 0.00 0.00
1:53 am 01:53 Clear 39 3.9 33 0.6 79 79 VRB 3 6 30.06 1018 10 16 0.00 0.00
2:53 am 02:53 Clear 37 2.8 32 0 82 82 N 3 6 30.05 1018 10 16 0.00 0.00
3:53 am 03:53 Clear 37 2.8 32 0 82 82 Calm 30.05 1018 10 16 0.00 0.00
4:53 am 04:53 Clear 38 3.3 32 0 79 79 Calm 30.05 1018 10 16 0.00 0.00
5:53 am 05:53 Clear 38 3.3 32 0 79 79 Calm 30.06 1018 10 16 0.00 0.00
6:53 am 06:53 Partly Cloudy 37 2.8 32 0 82 82 SW 5 7 30.07 1018 10 16 0.00 0.00
7:53 am 07:53 Mostly Cloudy 43 6.1 36 2.2 76 76 SW 5 7 30.09 1019 10 16 0.00 0.00
8:53 am 08:53 Sunny 49 9.4 37 2.8 64 64 SW 5 7 30.09 1019 10 16 0.00 0.00
9:53 am 09:53 Sunny 57 13.9 40 4.4 53 53 W 5 7 30.09 1019 10 16 0.00 0.00
10:53 am 10:53 Sunny 61 16.1 41 5 48 48 W 8 13 30.08 1019 10 16 0.00 0.00
11:53 am 11:53 Partly Cloudy 62 16.7 41 5 46 46 WSW 12 19 30.08 1019 10 16 0.00 0.00
12:53 pm 12:53 Partly Cloudy 65 18.3 40 4.4 40 40 WNW 14 22 30.06 1018 10 16 0.00 0.00
1:53 pm 13:53 Mostly Cloudy 65 18.3 40 4.4 40 40 WSW 10 17 30.03 1017 10 16 0.00 0.00
2:53 pm 14:53 Mostly Cloudy 64 17.8 38 3.3 38 38 W 9 15 30.03 1017 10 16 0.00 0.00
3:53 pm 15:53 Mostly Cloudy 66 18.9 40 4.4 39 39 W 12 19 30.01 1016 10 16 0.00 0.00
4:53 pm 16:53 Mostly Cloudy 68 20 40 4.4 36 36 W 14 22 30.01 1016 10 16 0.00 0.00
5:53 pm 17:53 Partly Cloudy 67 19.4 38 3.3 35 35 W 14 22 29.99 1016 10 16 0.00 0.00
6:53 pm 18:53 Mostly Cloudy 66 18.9 39 3.9 37 37 WSW 7 11 29.98 1015 10 16 0.00 0.00
7:53 pm 19:53 Partly Cloudy 63 17.2 38 3.3 40 40 WSW 8 13 29.97 1015 10 16 0.00 0.00
8:53 pm 20:53 Mostly Cloudy 59 15 40 4.4 49 49 WSW 6 9 29.98 1015 10 16 0.00 0.00
9:53 pm 21:53 Clear 55 12.8 40 4.4 57 57 SW 5 7 29.99 1016 10 16 0.00 0.00
10:53 pm 22:53 Clear 52 11.1 40 4.4 64 64 SW 5 7 29.98 1015 10 16 0.00 0.00
11:53 pm 23:53 Clear 50 10 40 4.4 68 68 SW 6 9 29.96 1015 10 16 0.00 0.00

Powered by AerisWeather